Herbert Island, British Columbia

6:23 PM PST on January 19, 2017 (GMT -0800)
Herbert Island

Weather History for CWLP - January, 2013

Change the Weather History Date:

Thursday, January 24, 2013

  Actual Average (CYZT) Record (CYZT)
Temperature  
Mean Temperature 42 °F -  
Max Temperature 43 °F 41 °F 53 °F (2015)
Min Temperature 40 °F 34 °F 24 °F (1997)
Degree Days  
Heating Degree Days 24    
Moisture  
Dew Point 38 °F    
Average Humidity 85    
Maximum Humidity 92    
Minimum Humidity 73    
Precipitation  
Precipitation 0.00 in - - ()
Sea Level Pressure  
Sea Level Pressure 29.86 in    
Wind  
Wind Speed 28 mph ()    
Max Wind Speed 53 mph    
Max Gust Speed 67 mph    
Averages and records for this station are not official NWS values.
T = Trace of Precipitation, MM = Missing Value Source: Averaged Metar Reports

Daily Weather History Graph

Daily Weather History Graph

Search for Another Location

Airport or City:

Trip Planner

Search our weather history database for the weather conditions in past years. The results will help you decide how hot, cold, wet, or windy it might be!

Date:

Astronomy

Jan. 24, 2013 Rise Set
Actual Time 8:17 AM PST 5:08 PM PST
Civil Twilight 7:40 AM PST 5:45 PM PST
Nautical Twilight 7:00 AM PST 6:25 PM PST
Astronomical Twilight 6:21 AM PST 7:04 PM PST
Moon 3:13 PM PST (1/24) 6:23 AM PST (1/24)
Length of Visible Light 10h 04m
Length of Day
8h 51m
Waxing Gibbous, 95% of the Moon is Illuminated
Jan 24
Waxing Gibbous
Jan 26
Full
Feb 3
Last Quarter
Feb 9
New
Feb 17
First Quarter

Hourly Weather History & Observations

Time (PST) Temp. Windchill Dew Point Humidity Pressure Visibility Wind Dir Wind Speed Gust Speed Precip Events Conditions
12:00 AM 42.8 °F 36.2 °F 40.3 °F 91% 30.03 in - ESE 12.7 mph - N/A   Unknown
1:00 AM 42.4 °F 35.3 °F 39.9 °F 91% 30.05 in - SE 13.8 mph - N/A   Unknown
2:00 AM 42.4 °F 33.8 °F 39.6 °F 90% 30.05 in - ESE 19.6 mph - N/A   Unknown
3:00 AM 42.3 °F 32.8 °F 39.4 °F 90% 30.04 in - SE 23.0 mph - N/A   Unknown
4:00 AM 42 °F - 39 °F 84% 30.03 in - ESE 25.3 mph - -  
4:00 AM 41.9 °F 31.9 °F 38.8 °F 89% 30.03 in - ESE 25.3 mph - N/A   Unknown
5:00 AM 41.0 °F 30.0 °F 38.5 °F 91% 30.01 in - SE 28.8 mph - N/A   Unknown
6:00 AM 41.7 °F 30.8 °F 38.5 °F 88% 29.99 in - ESE 29.9 mph - N/A   Unknown
7:00 AM 41.9 °F 31.1 °F 37.9 °F 86% 29.96 in - ESE 29.9 mph 35.7 mph N/A   Unknown
8:00 AM 42.3 °F 30.7 °F 37.2 °F 82% 29.91 in - ESE 35.7 mph 42.6 mph N/A   Unknown
9:00 AM 42.8 °F 31.0 °F 36.9 °F 80% 29.91 in - ESE 39.1 mph 47.2 mph N/A   Unknown
10:00 AM 43 °F - 37 °F 73% 29.86 in - ESE 42.6 mph - -  
10:00 AM 43.2 °F 31.1 °F 37.2 °F 80% 29.86 in - ESE 42.6 mph 51.8 mph N/A   Unknown
11:00 AM 43.0 °F 30.4 °F 38.7 °F 85% 29.83 in - ESE 46.0 mph 55.2 mph N/A   Unknown
12:00 PM 42.4 °F 29.3 °F 37.8 °F 83% 29.80 in - ESE 49.5 mph 58.7 mph N/A   Unknown
1:00 PM 42.1 °F 29.0 °F 39.4 °F 90% 29.76 in - ESE 47.2 mph 58.7 mph N/A   Unknown
2:00 PM 41.7 °F 27.9 °F 39.4 °F 91% 29.71 in - ESE 52.9 mph 64.4 mph N/A   Unknown
3:00 PM 41.9 °F 28.3 °F 38.3 °F 87% 29.70 in - ESE 51.8 mph 63.3 mph N/A   Unknown
4:00 PM 41 °F - 39 °F 89% 29.68 in - ESE 52.9 mph - -  
4:00 PM 41.0 °F 26.9 °F 38.8 °F 92% 29.68 in - ESE 52.9 mph 66.7 mph N/A   Unknown
5:00 PM 42.4 °F 29.0 °F 37.0 °F 81% 29.70 in - ESE 51.8 mph 59.8 mph N/A   Unknown
6:00 PM 42.3 °F 29.5 °F 37.0 °F 82% 29.74 in - SE 44.9 mph 59.8 mph N/A   Unknown
7:00 PM 42.6 °F 30.2 °F 37.0 °F 81% 29.74 in - SE 43.7 mph 55.2 mph N/A   Unknown
8:00 PM 42.8 °F 31.0 °F 36.5 °F 78% 29.76 in - ESE 39.1 mph 47.2 mph N/A   Unknown
9:00 PM 43.2 °F 31.9 °F 37.2 °F 80% 29.78 in - ESE 35.7 mph 42.6 mph N/A   Unknown
10:00 PM 43 °F - 38 °F 75% 29.81 in - SE 26.5 mph - -  
10:00 PM 43.2 °F 33.4 °F 37.8 °F 81% 29.81 in - SE 26.5 mph 33.4 mph N/A   Unknown
11:00 PM 43.0 °F 32.7 °F 38.3 °F 84% 29.82 in - SE 28.8 mph 35.7 mph N/A   Unknown